DECAYED

KZ-1A R/B, 62191 (Decayed)

Orbit data source: Space-Track

KZ-1A R/B, 62191 was space debris in LEO originally from a launch on Wed, 04 Dec 2024 UTC launched from the Xichang Space Center, China (XSC). Debris objects in space refer to the collection of defunct objects orbiting the Earth. Examples of debris include non-operational satellites, rocket bodies, and fragments generated from explosions, collisions, or faulty payload assembly.

Not visible in the next 10 days
Identifier
62191, 2024-228B
Orbit
Decayed
Last TLE update
7 months ago
Origin
Flag of CNHangtian kegong huojian jishu youxiangongsi (CN / PRC)
Manufacturer
CASIC
Mission
Decayed spacecraft
Bus & Motor
Unknown
Mass
~50 kg wet, ~50 kg dry
Launch date (UTC)
2024-12-04 (7 months ago)
Launch vehicle
Unknown
Launch site
Xichang Space Center, China (XSC)
Object type
Payload
Rocket body
Debris
Shape & HBR
Cyl, 1.4 m
Radar Cross Section
22.101 m², Large (>1 m²)

Expand to show TLE details & history

TLE from 7 months ago
0 KZ-1A R/B
1 62191U 24228B   24340.50398185  .33852827  12798-4  48036-3 0  9992
2 62191  46.0912 100.6897 0134994   6.8812  42.8048 16.25337093   138
Epoch: 2024-12-05T12:05Z
TLE epoch observation values (Epoch: 2024-12-05T12:05:44.031Z)
Latitude
34.04097°
Longitude
-115.24715°
Altitude
142.054 km
Speed
7.864 km/s
True Right ascension
09h 23m 52s
True Declination
33° 51' 60"
Sunlit
Object was in full shadow at epoch
Visualization orbit readout
Visualization observer readout
Orbital elements
Apogee altitude
295.477 km
Perigee altitude
117.697 km
Semi-major axis
6,584.724 km
Eccentricity
0.0135
Inclination
46.0912°
RAAN
100.6897°
Arg. of periapsis
6.8812°
True anomaly
Unknown
Mean anomaly
42.8048°
Eccentric anomaly
Unknown
Mean motion
4.06197 °/min
Orbital period
88.63 mins
BSTAR
0.00048036
Loading maneuver chart data...
Loading SW <> Apogee altitude chart data...
Loading historical data...
Loading historical data...
Loading historical data...
Loading historical data...
Loading historical data...
Loading historical data...
Loading historical data...
Other satellites on launch #228 in the year 2024 (2024-12-04 UTC)

KZ-1A R/B Visibility

Observer location: undefined°, undefined°

This satellite is decayed
Span
Click to sort rows by Start time (UTC) header in descending order
Start Az.
Max El. time (UTC)
Max El. Az.
Max El.
End time (UTC)
End Az.
|